FW4610 Weather Reports


time (UTC)temp
C
wind
direction
speed
KPH
gust
KPH
rain 1hr
cm
rain 24hr
cm
rain mn
cm
humidity
%
barometer
mb
20260510192639 15 214 12.9 24.1 0.00 0.28 0.28 52 1011.6
20260510192136 15 162 9.7 27.4 0.00 0.28 0.28 49 1011.6
20260510190628 15 263 3.2 16.1 0.00 0.28 0.28 50 1011.6
20260510185625 15 212 14.5 27.4 0.00 0.28 0.28 51 1011.6
20260510184622 15 144 8.0 24.1 0.00 0.28 0.28 50 1011.3
20260510183618 15 211 1.6 24.1 0.00 0.28 0.28 52 1011.3
20260510182615 14 190 12.9 24.1 0.00 0.28 0.28 51 1011.3
20260510182109 15 197 12.9 20.9 0.00 0.28 0.28 55 1011.6
20260510180606 15 218 6.4 20.9 0.00 0.28 0.28 57 1011.0
20260510175603 14 355 8.0 24.1 0.00 0.28 0.28 54 1011.0
20260510174559 13 220 6.4 20.9 0.00 0.28 0.28 55 1011.0
20260510173605 13 252 3.2 20.9 0.00 0.28 0.28 59 1011.0
20260510172550 13 294 3.2 20.9 0.00 0.28 0.28 61 1011.0
20260510171548 13 232 4.8 24.1 0.00 0.28 0.28 62 1011.0
20260510170611 13 125 4.8 24.1 0.00 0.28 0.28 61 1010.6
20260510165537 13 180 4.8 24.1 0.00 0.28 0.28 63 1011.0
20260510164534 13 158 4.8 20.9 0.00 0.28 0.28 62 1010.6
20260510163530 13 237 4.8 20.9 0.00 0.28 0.28 62 1011.0
20260510162527 13 136 3.2 20.9 0.00 0.28 0.28 62 1011.0
20260510161523 13 291 3.2 24.1 0.00 0.28 0.28 64 1010.6
20260510160522 13 207 11.3 16.1 0.00 0.28 0.28 61 1010.6
20260510155515 13 292 6.4 20.9 0.00 0.28 0.28 66 1010.6
20260510154510 13 190 3.2 20.9 0.00 0.28 0.28 68 1010.6
20260510153506 13 287 3.2 20.9 0.00 0.28 0.28 69 1010.6
20260510152502 13 275 3.2 16.1 0.00 0.28 0.28 68 1010.3
20260510151527 13 354 1.6 16.1 0.00 0.28 0.28 68 1010.3
20260510150455 13 106 1.6 12.9 0.00 0.28 0.28 67 1010.3
20260510145452 13 82 1.6 16.1 0.00 0.28 0.28 66 1009.9
20260510144448 13 166 6.4 20.9 0.00 0.28 0.28 66 1009.9
20260510143443 13 22 6.4 24.1 0.00 0.28 0.28 70 1009.9
20260510142439 13 253 4.8 20.9 0.00 0.28 0.28 68 1009.9
20260510141936 13 182 9.7 16.1 0.00 0.28 0.28 67 1009.9
20260510140433 13 202 8.0 20.9 0.00 0.28 0.28 67 1009.9
20260510135426 12 251 3.2 16.1 0.00 0.28 0.28 73 1009.6
20260510134423 13 322 4.8 24.1 0.00 0.28 0.28 69 1009.6
20260510133421 13 212 4.8 16.1 0.00 0.28 0.28 68 1009.6
20260510132416 13 196 1.6 12.9 0.00 0.28 0.28 72 1009.6
20260510131415 13 302 3.2 27.4 0.00 0.28 0.28 72 1009.3
20260510130408 13 6 3.2 12.9 0.00 0.28 0.28 71 1009.3
20260510125403 12 241 4.8 27.4 0.00 0.28 0.28 72 1008.9
20260510124400 12 215 6.4 20.9 0.00 0.28 0.28 73 1008.9
20260510123355 12 248 4.8 20.9 0.00 0.28 0.28 75 1008.9
20260510122853 12 233 1.6 20.9 0.00 0.28 0.28 77 1008.6
20260510121347 12 294 4.8 20.9 0.00 0.28 0.28 77 1008.6
20260510120345 12 209 8.0 27.4 0.00 0.28 0.28 78 1008.3
20260510115340 11 212 4.8 24.1 0.00 0.28 0.28 80 1008.3
20260510114335 11 190 6.4 16.1 0.00 0.28 0.28 83 1007.9
20260510113832 10 231 3.2 16.1 0.00 0.28 0.28 88 1007.9
20260510112327 10 177 3.2 12.9 0.00 0.28 0.28 89 1007.9
20260510111324 10 204 8.0 12.9 0.00 0.28 0.28 92 1007.6
20260510110322 9 185 3.2 12.9 0.00 0.28 0.28 94 1007.6
20260510105318 9 230 0.0 12.9 0.00 0.28 0.28 96 1007.2
20260510104311 9 146 4.8 12.9 0.00 0.28 0.28 98 1006.9
20260510103308 9 141 0.0 12.9 0.00 0.28 0.28 99 1006.9
20260510102306 9 268 4.8 12.9 0.00 0.28 0.28 99 1006.6
20260510101304 9 189 6.4 12.9 0.00 0.28 0.28 99 1006.6
20260510100259 9 207 1.6 20.9 0.00 0.28 0.28 99 1006.9
20260510095255 9 213 4.8 12.9 0.00 0.28 0.28 99 1006.6
20260510094248 9 203 3.2 16.1 0.00 0.28 0.28 99 1006.6
20260510093746 9 183 4.8 16.1 0.00 0.28 0.28 99 1006.1
20260510092241 9 188 1.6 12.9 0.00 0.28 0.28 99 1006.1
20260510091237 9 174 4.8 16.1 0.00 0.28 0.28 99 1005.8
20260510090233 9 248 3.2 12.9 0.00 0.28 0.28 99 1005.8
20260510085229 9 221 4.8 12.9 0.00 0.28 0.28 99 1005.8
20260510084828 10 185 3.2 20.9 0.00 0.28 0.28 99 1005.8
20260510084229 10 204 3.2 8.0 0.00 0.28 0.28 99 1005.8
20260510084225 10 211 0.0 16.1 0.00 0.28 0.28 99 1005.8
20260510081215 10 193 4.8 12.9 0.00 0.28 0.28 99 1005.4
20260510080210 10 234 8.0 20.9 0.00 0.28 0.28 99 1005.4
20260510075205 10 222 3.2 12.9 0.00 0.28 0.28 99 1005.1
20260510074203 10 219 0.0 12.9 0.00 0.28 0.28 99 1005.1
20260510073157 10 218 8.0 12.9 0.00 0.28 0.28 99 1005.1
20260510072656 10 200 6.4 20.9 0.00 0.28 0.28 99 1005.1
20260510071650 10 224 8.0 12.9 0.00 0.28 0.28 99 1005.1
20260510070147 9 252 4.8 8.0 0.00 0.28 0.28 99 1005.4
20260510065142 9 216 0.0 3.2 0.00 0.28 0.28 99 1005.1
20260510064144 9 199 0.0 8.0 0.03 0.28 0.28 99 1005.1
20260510064140 9 196 1.6 8.0 0.00 0.28 0.28 99 1005.1
20260510062133 9 214 4.8 8.0 0.03 0.28 0.28 99 1005.1
20260510061128 9 204 1.6 8.0 0.05 0.28 0.28 99 1005.1
20260510060123 9 216 3.2 3.2 0.10 0.28 0.28 99 1005.1
20260510055621 9 91 0.0 8.0 0.18 0.28 0.28 99 1004.8
20260510055226 9 209 1.6 3.2 0.23 0.28 0.28 99 1004.8
20260510053611 9 159 0.0 3.2 0.23 0.23 0.23 99 1004.8
20260510052608 9 148 1.6 3.2 0.23 0.23 0.23 99 1005.1
20260510051106 9 227 3.2 12.9 0.20 0.20 0.20 99 1005.1
20260510050108 10 192 0.0 8.0 0.15 0.15 0.18 99 1005.4
20260510045057 10 214 1.6 8.0 0.10 0.10 0.10 97 1005.4
20260510044050 10 211 6.4 12.9 0.03 0.03 0.03 95 1005.4
20260510043047 10 206 3.2 8.0 0.00 0.00 0.00 93 1005.1
20260510042046 10 172 6.4 12.9 0.00 0.00 0.00 91 1004.8
20260510041043 10 181 9.7 12.9 0.00 0.00 0.00 91 1005.1
20260510040041 10 128 4.8 8.0 0.00 0.00 0.00 91 1004.8
20260510035036 10 185 1.6 8.0 0.00 0.00 0.00 91 1004.8
20260510034032 10 124 3.2 12.9 0.00 0.00 0.00 91 1004.8
20260510033033 10 99 3.2 8.0 0.00 0.00 0.00 91 1004.8
20260510032026 10 73 1.6 8.0 0.00 0.00 0.00 92 1005.1
20260510031026 10 160 0.0 8.0 0.00 0.00 0.00 92 1005.1
20260510030012 10 77 3.2 8.0 0.00 0.00 0.00 92 1005.1
20260510025010 10 153 3.2 8.0 0.00 0.00 0.00 91 1005.4
20260510024004 10 207 3.2 8.0 0.00 0.00 0.00 91 1005.4
20260510023000 10 144 1.6 12.9 0.00 0.00 0.00 91 1005.4
20260510022459 10 62 3.2 8.0 0.00 0.00 0.00 91 1005.4
20260510020953 10 145 1.6 8.0 0.00 0.00 0.00 91 1005.8
20260510020451 10 114 0.0 8.0 0.00 0.00 0.00 90 1005.8
20260510020054 10 190 0.0 8.0 0.00 0.00 0.00 90 1006.1
20260510013941 10 220 1.6 8.0 0.00 0.00 0.00 89 1006.1
20260510012937 10 174 0.0 8.0 0.00 0.00 0.00 89 1006.1
20260510011935 11 80 3.2 8.0 0.00 0.00 0.00 88 1006.6
20260510010931 11 171 6.4 12.9 0.00 0.00 0.00 87 1006.1
20260510010428 11 96 1.6 12.9 0.00 0.00 0.00 86 1006.1
20260510005424 11 131 4.8 12.9 0.00 0.00 0.00 86 1006.1
20260510004421 11 90 3.2 20.9 0.00 0.00 0.00 85 1005.8
20260510002914 11 58 4.8 16.1 0.00 0.00 0.00 84 1006.1
20260510001911 12 14 3.2 16.1 0.00 0.00 0.00 83 1005.8
20260510000919 12 96 3.2 12.9 0.00 0.00 0.00 82 1005.8
20260509235904 12 185 3.2 20.9 0.00 0.00 0.00 81 1006.1
20260509234859 12 73 4.8 12.9 0.00 0.00 0.00 80 1005.8
20260509233854 13 86 11.3 16.1 0.00 0.00 0.00 78 1005.4
20260509232854 13 258 1.6 20.9 0.00 0.00 0.00 77 1005.8
20260509231850 13 136 4.8 20.9 0.00 0.00 0.00 76 1005.4
20260509230843 14 123 9.7 20.9 0.00 0.00 0.00 74 1005.8
20260509225841 15 72 8.0 16.1 0.00 0.00 0.00 73 1005.8
20260509224835 15 176 1.6 12.9 0.00 0.00 0.00 71 1005.8
20260509223831 15 273 3.2 20.9 0.00 0.00 0.00 69 1006.1
20260509222828 16 201 0.0 20.9 0.00 0.00 0.00 68 1006.6
20260509221824 16 114 4.8 16.1 0.00 0.00 0.00 65 1006.1
20260509221323 16 95 6.4 16.1 0.00 0.00 0.00 63 1006.1
20260509215820 17 110 6.4 16.1 0.00 0.00 0.00 60 1006.1
20260509214812 17 24 4.8 12.9 0.00 0.00 0.00 58 1006.1
20260509213809 17 130 3.2 16.1 0.00 0.00 0.00 57 1006.1
20260509212806 17 107 6.4 20.9 0.00 0.00 0.00 54 1006.1
20260509211800 18 64 12.9 24.1 0.00 0.00 0.00 51 1006.1
20260509210755 18 121 3.2 20.9 0.00 0.00 0.00 48 1006.1
20260509205753 18 164 3.2 20.9 0.00 0.00 0.00 47 1006.6
20260509204749 18 53 3.2 16.1 0.00 0.00 0.00 44 1006.1
20260509203745 18 98 3.2 20.9 0.00 0.00 0.00 43 1006.1
20260509202739 19 125 3.2 20.9 0.00 0.00 0.00 41 1006.1
20260509202241 19 86 9.7 16.1 0.00 0.00 0.00 41 1006.1
20260509200745 20 90 8.0 16.1 0.00 0.00 0.00 38 1006.6
20260509200229 20 245 3.2 16.1 0.00 0.00 0.00 37 1006.6
20260509194724 20 80 6.4 20.9 0.00 0.00 0.00 35 1006.6
20260509193723 20 124 3.2 16.1 0.00 0.00 0.00 33 1006.9